Change the Weather History Date:

Sunday, March 16, 2014

  Actual Average Record
Temperature  
Mean Temperature 22 °F -  
Max Temperature 30 °F 35 °F 77 °F (2012)
Min Temperature 15 °F 20 °F 8 °F (2002)
Degree Days  
Heating Degree Days 42    
Moisture  
Dew Point 16 °F    
Average Humidity 72    
Maximum Humidity 93    
Minimum Humidity 59    
Precipitation  
Precipitation 0.00 in - - ()
Sea Level Pressure  
Sea Level Pressure 30.23 in    
Wind  
Wind Speed 11 mph (SE)    
Max Wind Speed 24 mph    
Max Gust Speed 29 mph    
Visibility 10 miles    
Events      
Averages and records for this station are not official NWS values.
T = Trace of Precipitation, MM = Missing Value Source: NWS Daily Summary

Daily Weather History Graph

Daily Weather History Graph

Search for Another Location

Airport or City:

Trip Planner

Search our weather history database for the weather conditions in past years. The results will help you decide how hot, cold, wet, or windy it might be!

Date:

Astronomy

Mar. 16, 2014 Rise Set
Actual Time 7:35 AM CDT 7:32 PM CDT
Civil Twilight 7:06 AM CDT 8:01 PM CDT
Nautical Twilight 6:33 AM CDT 8:35 PM CDT
Astronomical Twilight 5:59 AM CDT 9:09 PM CDT
Moon 7:53 PM CDT (3/16) 7:18 AM CDT (3/16)
Length of Visible Light 12h 54m
Length of Day
11h 57m
Full, 100% of the Moon is Illuminated
Mar 16
Full
Mar 16
Full
Mar 23
Last Quarter
Mar 30
New
Apr 7
First Quarter

Hourly Weather History & Observations

Time (CDT) Temp. Windchill Dew Point Humidity Pressure Visibility Wind Dir Wind Speed Gust Speed Precip Events Conditions
12:13 AM 23.0 °F 10.6 °F 17.6 °F 80% 30.35 in 10.0 mi NNE 13.8 mph 18.4 mph N/A   Clear
12:33 AM 21.2 °F 8.9 °F 17.6 °F 86% 30.35 in 10.0 mi NNE 12.7 mph 17.3 mph N/A   Clear
12:53 AM 21.2 °F 8.3 °F 17.6 °F 86% 30.35 in 10.0 mi NE 13.8 mph 18.4 mph N/A   Clear
1:13 AM 21.2 °F 9.5 °F 17.6 °F 86% 30.36 in 10.0 mi NNE 11.5 mph - N/A   Clear
1:33 AM 21.2 °F 10.1 °F 17.6 °F 86% 30.36 in 10.0 mi NNE 10.4 mph 16.1 mph N/A   Clear
1:53 AM 19.4 °F 6.6 °F 15.8 °F 86% 30.37 in 10.0 mi NNE 12.7 mph 17.3 mph N/A   Clear
2:13 AM 19.4 °F 7.2 °F 15.8 °F 86% 30.38 in 10.0 mi NNE 11.5 mph - N/A   Clear
2:33 AM 19.4 °F 7.9 °F 15.8 °F 86% 30.39 in 10.0 mi NNE 10.4 mph - N/A   Clear
2:53 AM 19.4 °F 8.6 °F 15.8 °F 86% 30.39 in 10.0 mi NE 9.2 mph - N/A   Clear
3:13 AM 19.4 °F 7.9 °F 15.8 °F 86% 30.39 in 10.0 mi NNE 10.4 mph - N/A   Clear
3:34 AM 17.6 °F 5.0 °F 15.8 °F 93% 30.39 in 10.0 mi NNE 11.5 mph 16.1 mph N/A   Clear
3:53 AM 17.6 °F 5.7 °F 15.8 °F 93% 30.38 in 10.0 mi NE 10.4 mph - N/A   Clear
4:13 AM 17.6 °F 6.4 °F 14.0 °F 86% 30.38 in 10.0 mi NE 9.2 mph - N/A   Clear
4:34 AM 17.6 °F 6.4 °F 14.0 °F 86% 30.37 in 10.0 mi NE 9.2 mph - N/A   Clear
4:53 AM 17.6 °F 7.3 °F 14.0 °F 86% 30.37 in 10.0 mi NE 8.1 mph - N/A   Clear
5:13 AM 17.6 °F 8.2 °F 14.0 °F 86% 30.37 in 10.0 mi NE 6.9 mph - N/A   Clear
5:33 AM 17.6 °F 6.4 °F 14.0 °F 86% 30.37 in 10.0 mi NE 9.2 mph - N/A   Clear
5:53 AM 17.6 °F 7.3 °F 14.0 °F 86% 30.36 in 10.0 mi NE 8.1 mph - N/A   Clear
6:13 AM 15.8 °F 7.2 °F 12.2 °F 86% 30.35 in 10.0 mi ENE 5.8 mph - N/A   Clear
6:33 AM 15.8 °F 7.2 °F 12.2 °F 86% 30.35 in 10.0 mi ENE 5.8 mph - N/A   Clear
6:53 AM 15.8 °F 6.1 °F 12.2 °F 86% 30.36 in 10.0 mi ENE 6.9 mph - N/A   Clear
7:13 AM 15.8 °F 7.2 °F 12.2 °F 86% 30.36 in 10.0 mi NE 5.8 mph - N/A   Clear
7:33 AM 15.8 °F 6.1 °F 12.2 °F 86% 30.37 in 10.0 mi NE 6.9 mph - N/A   Clear
7:53 AM 15.8 °F 6.1 °F 12.2 °F 86% 30.38 in 10.0 mi NE 6.9 mph - N/A   Clear
8:13 AM 15.8 °F 7.2 °F 12.2 °F 86% 30.38 in 10.0 mi NE 5.8 mph - N/A   Clear
8:33 AM 17.6 °F 7.3 °F 12.2 °F 79% 30.39 in 10.0 mi NE 8.1 mph - N/A   Clear
8:53 AM 17.6 °F 9.3 °F 12.2 °F 79% 30.38 in 10.0 mi ENE 5.8 mph - N/A   Clear
9:13 AM 19.4 °F 10.4 °F 12.2 °F 74% 30.37 in 10.0 mi East 6.9 mph - N/A   Clear
9:33 AM 19.4 °F 10.4 °F 12.2 °F 74% 30.37 in 10.0 mi ESE 6.9 mph - N/A   Clear
9:53 AM 19.4 °F 10.4 °F 12.2 °F 74% 30.37 in 10.0 mi ESE 6.9 mph - N/A   Clear
10:13 AM 19.4 °F 9.5 °F 12.2 °F 74% 30.35 in 10.0 mi East 8.1 mph - N/A   Clear
10:33 AM 21.2 °F 12.6 °F 12.2 °F 68% 30.36 in 10.0 mi SE 6.9 mph - N/A   Clear
10:53 AM 21.2 °F 12.6 °F 12.2 °F 68% 30.34 in 10.0 mi SE 6.9 mph - N/A   Clear
11:13 AM 23.0 °F 15.8 °F 12.2 °F 63% 30.34 in 10.0 mi SSE 5.8 mph - N/A   Clear
11:33 AM 23.0 °F 14.7 °F 12.2 °F 63% 30.32 in 10.0 mi SE 6.9 mph - N/A   Clear
11:53 AM 24.8 °F 16.1 °F 14.0 °F 64% 30.31 in 10.0 mi South 8.1 mph - N/A   Clear
12:13 PM 24.8 °F 16.9 °F 14.0 °F 64% 30.31 in 10.0 mi SSE 6.9 mph - N/A   Clear
12:33 PM 24.8 °F 16.9 °F 14.0 °F 64% 30.31 in 10.0 mi South 6.9 mph - N/A   Clear
12:53 PM 24.8 °F 15.3 °F 15.8 °F 69% 30.30 in 10.0 mi SSW 9.2 mph - N/A   Clear
1:13 PM 24.8 °F 16.9 °F 14.0 °F 64% 30.29 in 10.0 mi SW 6.9 mph - N/A   Scattered Clouds
1:33 PM 24.8 °F 15.3 °F 15.8 °F 69% 30.27 in 10.0 mi SSE 9.2 mph - N/A   Scattered Clouds
1:53 PM 26.6 °F 19.1 °F 15.8 °F 64% 30.26 in 10.0 mi South 6.9 mph - N/A   Clear
2:13 PM 26.6 °F 21.2 °F 15.8 °F 64% 30.26 in 10.0 mi SSE 4.6 mph - N/A   Clear
2:33 PM 26.6 °F 20.0 °F 15.8 °F 64% 30.24 in 10.0 mi South 5.8 mph - N/A   Clear
2:53 PM 26.6 °F 18.2 °F 15.8 °F 64% 30.23 in 10.0 mi South 8.1 mph - N/A   Clear
3:13 PM 28.4 °F 20.4 °F 15.8 °F 59% 30.21 in 10.0 mi SW 8.1 mph - N/A   Clear
3:33 PM 28.4 °F 18.5 °F 15.8 °F 59% 30.20 in 10.0 mi SSW 11.5 mph - N/A   Clear
3:53 PM 28.4 °F 22.2 °F 17.6 °F 64% 30.18 in 10.0 mi SSW 5.8 mph - N/A   Clear
4:14 PM 30.2 °F 23.4 °F 17.6 °F 60% 30.16 in 10.0 mi South 6.9 mph - N/A   Clear
4:33 PM 30.2 °F 22.6 °F 17.6 °F 60% 30.15 in 10.0 mi SSW 8.1 mph 16.1 mph N/A   Clear
4:53 PM 30.2 °F 21.3 °F 17.6 °F 60% 30.14 in 10.0 mi SSW 10.4 mph - N/A   Clear
5:14 PM 30.2 °F 21.9 °F 17.6 °F 60% 30.11 in 10.0 mi SSW 9.2 mph 16.1 mph N/A   Clear
5:33 PM 30.2 °F 19.3 °F 17.6 °F 60% 30.11 in 10.0 mi South 15.0 mph - N/A   Clear
5:53 PM 30.2 °F 21.3 °F 19.4 °F 64% 30.11 in 10.0 mi SSW 10.4 mph - N/A   Clear
6:13 PM 30.2 °F 20.2 °F 19.4 °F 64% 30.09 in 10.0 mi South 12.7 mph - N/A   Clear
6:33 PM 30.2 °F 20.2 °F 19.4 °F 64% 30.07 in 10.0 mi South 12.7 mph - N/A   Clear
6:53 PM 30.2 °F 20.8 °F 19.4 °F 64% 30.08 in 10.0 mi South 11.5 mph - N/A   Clear
7:13 PM 30.2 °F 20.8 °F 19.4 °F 64% 30.06 in 10.0 mi South 11.5 mph - N/A   Scattered Clouds
7:33 PM 30.2 °F 20.8 °F 19.4 °F 64% 30.04 in 10.0 mi South 11.5 mph - N/A   Mostly Cloudy
7:53 PM 30.2 °F 21.3 °F 19.4 °F 64% 30.03 in 10.0 mi South 10.4 mph - N/A   Overcast
8:13 PM 30.2 °F 20.8 °F 19.4 °F 64% 30.02 in 10.0 mi South 11.5 mph 17.3 mph N/A   Overcast
8:33 PM 30.2 °F 19.3 °F 19.4 °F 64% 30.01 in 10.0 mi South 15.0 mph - N/A   Overcast
8:53 PM 30.2 °F 18.9 °F 19.4 °F 64% 29.99 in 10.0 mi South 16.1 mph - N/A   Overcast
9:13 PM 30.2 °F 18.9 °F 19.4 °F 64% 29.98 in 10.0 mi South 16.1 mph 20.7 mph N/A   Overcast
9:33 PM 30.2 °F 18.1 °F 17.6 °F 60% 29.97 in 10.0 mi South 18.4 mph - N/A   Overcast
9:53 PM 30.2 °F 18.5 °F 19.4 °F 64% 29.96 in 10.0 mi South 17.3 mph - N/A   Overcast
10:13 PM 30.2 °F 18.5 °F 19.4 °F 64% 29.95 in 10.0 mi South 17.3 mph 21.9 mph N/A   Overcast
10:33 PM 30.2 °F 18.1 °F 19.4 °F 64% 29.93 in 10.0 mi South 18.4 mph - N/A   Overcast
10:53 PM 30.2 °F 17.1 °F 17.6 °F 60% 29.92 in 10.0 mi SSW 21.9 mph - N/A   Mostly Cloudy
11:13 PM 30.2 °F 17.8 °F 17.6 °F 60% 29.91 in 10.0 mi SSW 19.6 mph 26.5 mph N/A   Mostly Cloudy
11:33 PM 28.4 °F 14.4 °F 17.6 °F 64% 29.88 in 10.0 mi SSW 23.0 mph 28.8 mph N/A   Scattered Clouds
11:53 PM 28.4 °F 14.1 °F 17.6 °F 64% 29.86 in 10.0 mi SSW 24.2 mph 28.8 mph N/A   Scattered Clouds